Погода в Муроме

Россия / Белгородская область     50°18′07″N   36°42′33″E
темп.,
°C
ветер,
м/с
пор.,
м/с
влажн.,
%
обл.,
%
осадки,
мм/ч
давл.,
гПа
погр.,
м
13 июня, вс
вс1300:00+15зсз23955 0.0 101050
03:00+14з23950 0.0 101042
06:00+15юз24950 0.0 1010140
09:00+19юз347968 0.0 1010503
12:00+22ююз4569100 0.4 10101167
15:00+23ююз466619 2.0 10091365
18:00+19ююз348227 1.4 100984
21:00+17ю22836 1.7 101018
14 июня, пн
пн1400:00+15ю23895 0.0 101130
03:00+14ююв33905 0.0 101138
06:00+15юв259276 0.0 1012124
09:00+20юв347712 0.0 1013445
12:00+24ююв45625 1.0 10141343
15:00+24юв336280 1.3 10141448
18:00+23в237698 1.4 1014379
21:00+18всв128455 2.6 101411
15 июня, вт
вт1500:00+17ссв228447 0.0 101411
03:00+16ссв228911 0.0 101421
06:00+16с369293 0.0 1014139
09:00+21ссв458332 0.0 1013388
12:00+24ссв45654 1.8 10121125
15:00+24ссв45655 2.3 10111328
18:00+23ссв23764 0.8 1010894
21:00+18с229080 1.9 101025
16 июня, ср
ср1600:00+18с3391100 1.0 100954
03:00+16с2295100 2.8 100932
06:00+17ссз3596100 1.7 1009164
09:00+20с3486100 3.5 1009208
12:00+19зсз1286100 4.2 1010259
15:00+18зсз2495100 5.4 1010217
18:00+21сз358899 1.4 1010273
21:00+18с4796100 6.4 1011161
17 июня, чт
чт1700:00+17св2399100 3.8 1012115
03:00+17св249999 6.6 1013178
06:00+17св4898100 1.1 1013446
09:00+18всв469482 1.9 1015521
12:00+21св568175 0.1 1016763
15:00+22св6780100 1.9 1017932
18:00+21св7118999 1.6 1017741
21:00+18св6148747 1.6 1019631